SL-16 R/B

基本信息
目录编号:
25407
目录名称:
SL-16 R/B
国际标识:
1998-045B
轨道中心:
EARTH
物体状态:
在轨
发射日期:
1998-07-28 UTC
国别:
俄罗斯(独联体) (CIS)
轨道信息
数据来源: 国际轨道数据
星历时间: 2026-07-13T23:39:29+0800
半长轴: 7216.351km
偏心率: 0.0008274
轨道倾角: 71.011°
近地点辐角: 208.871°
升交点赤经: 276.673°
平近点角: 151.195°
近地点: 832.243km
远地点: 844.185km
周期: 101.680分钟
每日圈数: 14.162058
详细信息
发射场:
TTMTR
轨道高度:
LEO
数据来源:
AOE Integration Group
参考系:
TEME
时间系统:
UTC
历元类型:
SGP4
2D轨道图
3D轨道图
轨道高度分析图
轨道倾角分析图
轨道综合分析图
查看轨道综合分析图